Time,TemperatureF,DewpointF,PressureIn,WindDirection,WindDirectionDegrees,WindSpeedMPH,WindSpeedGustMPH,Humidity,HourlyPrecipIn,Conditions,Clouds,dailyrainin,SoftwareType,DateUTC
2013-07-09 10:55:00,74.9,63.2,29.95,West,259,6.0,6.0,67,0.00,,---,0.00,VWS V12.07,2013-07-09 17:55:00,
2013-07-09 11:00:00,75.3,63.2,29.95,SSW,192,2.0,2.0,66,0.00,,---,0.00,VWS V12.07,2013-07-09 18:00:00,
2013-07-09 11:05:00,75.1,63.8,29.95,West,270,4.0,6.0,68,0.00,,---,0.00,VWS V12.07,2013-07-09 18:05:00,
2013-07-09 11:10:00,75.6,63.5,29.95,WSW,254,5.0,8.0,66,0.00,,---,0.00,VWS V12.07,2013-07-09 18:10:00,
2013-07-09 11:20:00,76.8,63.7,29.95,WSW,250,8.0,8.0,64,0.00,,---,0.00,VWS V12.07,2013-07-09 18:20:00,
2013-07-09 11:30:00,76.1,63.9,29.96,West,264,7.0,8.0,66,0.00,,---,0.00,VWS V12.07,2013-07-09 18:30:00,
2013-07-09 11:35:00,76.3,63.7,29.96,WSW,252,2.0,5.0,65,0.00,,---,0.00,VWS V12.07,2013-07-09 18:35:00,
2013-07-09 11:40:00,76.7,64.1,29.96,West,266,1.0,3.0,65,0.00,,---,0.00,VWS V12.07,2013-07-09 18:40:00,
2013-07-09 11:45:00,77.4,64.3,29.96,SSW,194,4.0,4.0,64,0.00,,---,0.00,VWS V12.07,2013-07-09 18:45:00,
2013-07-09 11:50:00,76.8,63.7,29.96,WSW,240,5.0,8.0,64,0.00,,---,0.00,VWS V12.07,2013-07-09 18:50:00,
2013-07-09 11:55:00,77.0,64.3,29.97,WSW,248,7.0,11.0,65,0.00,,---,0.00,VWS V12.07,2013-07-09 18:55:00,
2013-07-09 12:05:00,76.8,64.2,29.97,WSW,246,5.0,5.0,65,0.00,,---,0.00,VWS V12.07,2013-07-09 19:05:00,
2013-07-09 12:10:00,77.4,62.9,29.97,West,270,4.0,6.0,61,0.00,,---,0.00,VWS V12.07,2013-07-09 19:10:00,
2013-07-09 12:15:00,77.2,64.1,29.97,SW,232,0.0,1.0,64,0.00,,---,0.00,VWS V12.07,2013-07-09 19:15:00,
2013-07-09 12:20:00,77.9,63.8,29.97,WSW,254,7.0,8.0,62,0.00,,---,0.00,VWS V12.07,2013-07-09 19:20:00,
2013-07-09 12:25:00,77.7,63.7,29.97,South,181,1.0,4.0,62,0.00,,---,0.00,VWS V12.07,2013-07-09 19:25:00,
2013-07-09 12:30:00,77.9,62.9,29.97,South,175,2.0,2.0,60,0.00,,---,0.00,VWS V12.07,2013-07-09 19:30:00,
2013-07-09 19:30:00,71.8,61.9,29.89,SW,223,1.0,6.0,71,0.00,,---,0.00,VWS V12.07,2013-07-10 02:30:00,
2013-07-09 19:35:00,71.5,62.0,29.89,SW,217,0.0,4.0,72,0.00,,---,0.00,VWS V12.07,2013-07-10 02:35:00,
2013-07-09 19:45:00,70.6,61.9,29.88,SSW,202,0.0,3.0,74,0.00,,---,0.00,VWS V12.07,2013-07-10 02:45:00,
2013-07-09 19:50:00,70.3,61.6,29.88,WSW,254,0.0,0.0,74,0.00,,---,0.00,VWS V12.07,2013-07-10 02:50:00,
2013-07-09 20:00:00,69.8,61.5,29.89,WSW,240,1.0,7.0,75,0.00,,---,0.00,VWS V12.07,2013-07-10 03:00:00,
2013-07-09 20:10:00,69.4,61.5,29.89,WSW,240,0.0,2.0,76,0.00,,---,0.00,VWS V12.07,2013-07-10 03:10:00,
2013-07-09 20:15:00,69.3,61.4,29.89,WSW,240,2.0,2.0,76,0.00,,---,0.00,VWS V12.07,2013-07-10 03:15:00,
2013-07-09 20:20:00,68.9,61.4,29.89,WSW,241,0.0,5.0,77,0.00,,---,0.00,VWS V12.07,2013-07-10 03:20:00,
2013-07-09 20:25:00,68.8,61.3,29.89,WSW,241,1.0,1.0,77,0.00,,---,0.00,VWS V12.07,2013-07-10 03:25:00,
2013-07-09 20:30:00,68.6,61.1,29.89,WSW,241,1.0,2.0,77,0.00,,---,0.00,VWS V12.07,2013-07-10 03:30:00,
2013-07-09 20:35:00,68.6,61.1,29.89,WSW,241,0.0,1.0,77,0.00,,---,0.00,VWS V12.07,2013-07-10 03:35:00,
2013-07-09 20:40:00,68.8,61.7,29.90,WSW,241,0.0,1.0,78,0.00,,---,0.00,VWS V12.07,2013-07-10 03:40:00,
2013-07-09 20:45:00,68.9,61.8,29.90,WSW,241,1.0,1.0,78,0.00,,---,0.00,VWS V12.07,2013-07-10 03:45:00,
2013-07-09 20:50:00,68.8,61.7,29.90,WSW,241,0.0,1.0,78,0.00,,---,0.00,VWS V12.07,2013-07-10 03:50:00,
2013-07-09 20:55:00,68.8,61.7,29.90,WSW,241,0.0,0.0,78,0.00,,---,0.00,VWS V12.07,2013-07-10 03:55:00,
2013-07-09 21:05:00,68.9,61.8,29.90,WSW,241,0.0,1.0,78,0.00,,---,0.00,VWS V12.07,2013-07-10 04:05:00,
2013-07-09 21:10:00,68.9,61.4,29.91,SSE,159,0.0,0.0,77,0.00,,---,0.00,VWS V12.07,2013-07-10 04:10:00,
2013-07-09 21:20:00,68.9,61.8,29.91,SSE,159,0.0,0.0,78,0.00,,---,0.00,VWS V12.07,2013-07-10 04:20:00,
2013-07-09 21:25:00,68.9,61.8,29.91,SSE,159,0.0,0.0,78,0.00,,---,0.00,VWS V12.07,2013-07-10 04:25:00,
2013-07-09 21:30:00,68.8,61.7,29.91,SE,146,1.0,1.0,78,0.00,,---,0.00,VWS V12.07,2013-07-10 04:30:00,
2013-07-09 21:35:00,68.8,61.7,29.91,SE,125,0.0,4.0,78,0.00,,---,0.00,VWS V12.07,2013-07-10 04:35:00,